Time,TemperatureF,DewpointF,PressureIn,WindDirection,WindDirectionDegrees,WindSpeedMPH,WindSpeedGustMPH,Humidity,HourlyPrecipIn,Conditions,Clouds,dailyrainin,SoftwareType,DateUTC
2013-01-21 06:43:00,44.8,41.0,30.06,WNW,295,0.0,1.0,85,0.00,,,0.00,weatherlink.com 1.10,2013-01-21 11:43:00,
2013-01-21 06:58:00,44.6,40.0,30.06,WNW,295,0.0,1.0,85,0.00,,,0.00,weatherlink.com 1.10,2013-01-21 11:58:00,
2013-01-21 07:13:00,45.0,41.0,30.07,WNW,295,0.0,1.0,85,0.00,,,0.00,weatherlink.com 1.10,2013-01-21 12:13:00,
2013-01-21 07:28:00,45.1,41.0,30.07,NW,316,0.0,1.0,84,0.00,,,0.00,weatherlink.com 1.10,2013-01-21 12:28:00,
2013-01-21 07:43:00,46.1,40.0,30.07,North,349,0.0,2.0,79,0.00,,,0.00,weatherlink.com 1.10,2013-01-21 12:43:00,
2013-01-21 07:58:00,46.6,40.0,30.08,NW,314,0.0,3.0,78,0.00,,,0.00,weatherlink.com 1.10,2013-01-21 12:58:00,
2013-01-21 08:13:00,47.6,40.0,30.09,WNW,288,0.0,2.0,76,0.00,,,0.00,weatherlink.com 1.10,2013-01-21 13:13:00,
2013-01-21 08:28:00,48.5,41.0,30.09,NW,322,1.0,4.0,74,0.00,,,0.00,weatherlink.com 1.10,2013-01-21 13:28:00,
2013-01-21 08:43:00,49.4,41.0,30.10,NW,311,1.0,3.0,74,0.00,,,0.00,weatherlink.com 1.10,2013-01-21 13:43:00,
2013-01-21 08:58:00,50.3,42.0,30.11,West,274,0.0,4.0,74,0.00,,,0.00,weatherlink.com 1.10,2013-01-21 13:58:00,
2013-01-21 09:13:00,50.7,42.0,30.11,West,268,1.0,4.0,73,0.00,,,0.00,weatherlink.com 1.10,2013-01-21 14:13:00,
2013-01-21 09:28:00,51.5,42.0,30.11,West,261,2.0,4.0,70,0.00,,,0.00,weatherlink.com 1.10,2013-01-21 14:28:00,
2013-01-21 09:58:00,53.5,42.0,30.11,WNW,290,3.0,4.0,66,0.00,,,0.00,weatherlink.com 1.10,2013-01-21 14:58:00,
2013-01-21 10:13:00,54.5,43.0,30.11,WNW,303,3.0,4.0,65,0.00,,,0.00,weatherlink.com 1.10,2013-01-21 15:13:00,
2013-01-21 10:28:00,55.7,43.0,30.11,WNW,295,4.0,5.0,63,0.00,,,0.00,weatherlink.com 1.10,2013-01-21 15:28:00,
2013-01-21 11:44:00,60.0,42.0,30.10,WNW,296,3.0,6.0,52,0.00,,,0.00,weatherlink.com 1.10,2013-01-21 16:44:00,
2013-01-21 11:59:00,60.6,42.0,30.09,NW,311,2.0,5.0,50,0.00,,,0.00,weatherlink.com 1.10,2013-01-21 16:59:00,
2013-01-21 12:14:00,61.8,42.0,30.07,West,268,2.0,5.0,48,0.00,,,0.00,weatherlink.com 1.10,2013-01-21 17:14:00,
2013-01-21 12:29:00,62.7,40.0,30.06,West,263,3.0,6.0,43,0.00,,,0.00,weatherlink.com 1.10,2013-01-21 17:29:00,
2013-01-21 12:44:00,63.5,40.0,30.05,WNW,295,6.0,8.0,43,0.00,,,0.00,weatherlink.com 1.10,2013-01-21 17:44:00,
2013-01-21 12:59:00,63.2,40.0,30.05,WNW,295,5.0,10.0,43,0.00,,,0.00,weatherlink.com 1.10,2013-01-21 17:59:00,
2013-01-21 13:14:00,63.5,41.0,30.04,WNW,293,3.0,11.0,44,0.00,,,0.00,weatherlink.com 1.10,2013-01-21 18:14:00,
2013-01-21 13:29:00,64.0,41.0,30.03,NW,325,7.0,7.0,43,0.00,,,0.00,weatherlink.com 1.10,2013-01-21 18:29:00,
2013-01-21 13:44:00,64.5,41.0,30.02,WNW,297,5.0,8.0,42,0.00,,,0.00,weatherlink.com 1.10,2013-01-21 18:44:00,
2013-01-21 13:59:00,64.7,40.0,30.01,West,271,3.0,10.0,41,0.00,,,0.00,weatherlink.com 1.10,2013-01-21 18:59:00,
2013-01-21 14:14:00,64.7,40.0,30.00,WNW,300,7.0,11.0,40,0.00,,,0.00,weatherlink.com 1.10,2013-01-21 19:14:00,
2013-01-21 14:29:00,64.7,41.0,30.00,WNW,295,3.0,9.0,42,0.00,,,0.00,weatherlink.com 1.10,2013-01-21 19:29:00,
2013-01-21 14:44:00,64.5,41.0,30.00,West,277,2.0,9.0,42,0.00,,,0.00,weatherlink.com 1.10,2013-01-21 19:44:00,
2013-01-21 14:59:00,64.6,41.0,29.99,West,277,2.0,10.0,42,0.00,,,0.00,weatherlink.com 1.10,2013-01-21 19:59:00,
2013-01-21 15:14:00,64.9,40.0,29.99,WNW,290,5.0,13.0,41,0.00,,,0.00,weatherlink.com 1.10,2013-01-21 20:14:00,
2013-01-21 15:29:00,65.0,42.0,29.99,WNW,288,7.0,10.0,43,0.00,,,0.00,weatherlink.com 1.10,2013-01-21 20:29:00,
2013-01-21 16:14:00,63.3,41.0,30.00,WNW,296,4.0,11.0,45,0.00,,,0.00,weatherlink.com 1.10,2013-01-21 21:14:00,
2013-01-21 16:30:00,62.8,42.0,30.00,WNW,302,4.0,8.0,47,0.00,,,0.00,weatherlink.com 1.10,2013-01-21 21:30:00,
2013-01-21 16:45:00,62.5,42.0,30.00,WNW,295,2.0,8.0,47,0.00,,,0.00,weatherlink.com 1.10,2013-01-21 21:45:00,
2013-01-21 17:00:00,62.0,43.0,30.00,WNW,297,4.0,8.0,50,0.00,,,0.00,weatherlink.com 1.10,2013-01-21 22:00:00,
2013-01-21 17:15:00,61.4,44.0,30.00,WNW,285,1.0,4.0,54,0.00,,,0.00,weatherlink.com 1.10,2013-01-21 22:15:00,
2013-01-21 17:30:00,60.6,43.0,30.00,WSW,255,1.0,5.0,53,0.00,,,0.00,weatherlink.com 1.10,2013-01-21 22:30:00,
2013-01-21 17:45:00,59.8,44.0,30.01,West,280,1.0,3.0,56,0.00,,,0.00,weatherlink.com 1.10,2013-01-21 22:45:00,
2013-01-21 18:00:00,59.2,44.0,30.01,SW,219,1.0,3.0,57,0.00,,,0.00,weatherlink.com 1.10,2013-01-21 23:00:00,
2013-01-21 18:15:00,58.8,43.0,30.01,WSW,248,1.0,3.0,56,0.00,,,0.00,weatherlink.com 1.10,2013-01-21 23:15:00,
2013-01-21 18:30:00,58.5,43.0,30.02,WSW,242,1.0,3.0,57,0.00,,,0.00,weatherlink.com 1.10,2013-01-21 23:30:00,
2013-01-21 18:45:00,58.3,43.0,30.02,WSW,251,3.0,6.0,58,0.00,,,0.00,weatherlink.com 1.10,2013-01-21 23:45:00,
2013-01-21 19:00:00,58.2,44.0,30.02,WSW,252,2.0,5.0,59,0.00,,,0.00,weatherlink.com 1.10,2013-01-22 00:00:00,
2013-01-21 19:15:00,57.9,44.0,30.02,WNW,295,2.0,5.0,60,0.00,,,0.00,weatherlink.com 1.10,2013-01-22 00:15:00,
2013-01-21 19:30:00,57.4,44.0,30.03,WSW,241,4.0,5.0,62,0.00,,,0.00,weatherlink.com 1.10,2013-01-22 00:30:00,
2013-01-21 19:45:00,57.4,44.0,30.03,WNW,295,2.0,5.0,62,0.00,,,0.00,weatherlink.com 1.10,2013-01-22 00:45:00,
2013-01-21 20:00:00,57.2,44.0,30.03,WNW,291,2.0,4.0,61,0.00,,,0.00,weatherlink.com 1.10,2013-01-22 01:00:00,
2013-01-21 22:45:00,55.0,40.0,30.07,NW,304,1.0,11.0,58,0.00,,,0.00,weatherlink.com 1.10,2013-01-22 03:45:00,
2013-01-21 23:00:00,55.1,39.0,30.07,North,349,9.0,15.0,54,0.00,,,0.00,weatherlink.com 1.10,2013-01-22 04:00:00,
2013-01-21 23:15:00,55.2,38.0,30.07,WNW,301,9.0,13.0,52,0.00,,,0.00,weatherlink.com 1.10,2013-01-22 04:15:00,
2013-01-21 23:30:00,54.8,37.0,30.08,NW,304,5.0,13.0,51,0.00,,,0.00,weatherlink.com 1.10,2013-01-22 04:30:00,
2013-01-21 23:45:00,54.3,37.0,30.08,NNW,330,5.0,10.0,52,0.00,,,0.00,weatherlink.com 1.10,2013-01-22 04:45:00,